Погода METAR - Абакан

Код аэропорта ICAO:
Кемерово, Абакан, Красноярск, Новосибирск
Код METAR: UNAA 212030Z 00000MPS 2400 BR FU SCT044CB 09/09 Q1006 R02/090065 NOSIG RMK QFE732
TAF UNAA 211956Z 2121/2221 03003MPS 3100 BR FU SCT025CB 
     TEMPO 2123/2202 0300 -SHRA FG SCT005 SCT020CB 
     FM220400 21003G10MPS 9999 -SHRA SCT030CB 
     FM221200 35003MPS 3500 BR FU BKN011
       

Погода - Сейчас

Время: 2019-07-22 03:30, местное
Направление ветра: Штиль
Скорость ветра: 0 м/с
Видимость:
Температура: 9°C
Точка росы: 9°C
Атмосферное давление: 1006 гПа

Архив погоды

Время, местное Направление Скорость, м/с Температура, °C Точка росы, °C Давление, гПа
2019-07-22 03:30 Штиль 0 9 9 1006
2019-07-18 13:30 ЮЮВ (160°) 4 27 15 1005
2019-07-17 16:00 ЮЮЗ (200°) 5 25 12 1006
2019-07-17 10:00 Ю (190°) 3 20 15 1006
2019-07-16 07:30 ЮЮВ (150°) 2 14 13 1006
2019-07-14 01:30 Штиль 0 18 16 1008
2019-07-13 14:30 ЮЗ (210°) 2 20 16 1011
2019-07-12 22:30 ССЗ (340°) 4 21 12 1013
2019-07-12 20:30 С (350°) 3 23 13 1013
2019-07-12 18:00 С (350°) 4 24 13 1013
2019-07-12 05:30 С (10°) 3 15 12 1016
2019-07-11 08:30 ССЗ (340°) 2 18 13 1016
2019-07-11 00:30 ЗЮЗ (240°) 1 18 14 1013
2019-07-08 17:30 ЮЗ (210°) 2 28 16 1008
2019-07-07 21:00 Ю (180°) 1 26 18 1003
2019-07-07 05:00 ССЗ (330°) 1 11 11 1007
2019-07-05 01:30 Штиль 0 19 16 1009
2019-07-03 03:30 ЮЮЗ (200°) 1 15 15 1011
2019-06-30 06:00 ЮЗ (230°) 2 17 13 1007
2019-06-28 09:00 Штиль 0 23 16 1009
2019-06-26 19:00 ЮЮЗ (200°) 3 22 11 1013
2019-06-26 17:30 Ю (170°) 3 22 11 1013
2019-06-25 00:30 ЮЗ (210°) 2 10 4 1012
2019-06-24 17:00 ССВ (20°) 6 16 8 1012
2019-06-24 04:00 ЗЮЗ (240°) 2 16 11 1010
2019-06-22 20:00 СВ (50°) 2 25 11 1008
2019-06-20 21:00 С (10°) 2 20 10 1014
2019-06-19 17:30 ЮЮЗ (200°) 5 21 14 1011
2019-06-16 09:00 Переменный 1 17 17 1004
2019-06-15 19:30 С (360°) 6 20 16 1003
2019-06-14 22:30 С (350°) 1 18 17 1004
2019-06-13 01:30 С (360°) 1 17 12 1007
2019-06-11 04:00 Ю (190°) 2 14 11 1011
2019-06-11 01:00 ЮЗ (220°) 3 16 11 1010
2019-06-10 16:30 ЮЮЗ (200°) 4 20 11 1007
2019-06-09 20:00 ЮВ (140°) 3 21 12 1005
2019-06-08 09:30 В (100°) 2 16 13 1008
2019-06-08 05:00 Ю (170°) 2 0 500
2019-06-06 17:00 СВ (30°) 3 25 6 1006
2019-06-05 11:30 СВ (40°) 2 19 10 1010
2019-06-03 00:30 Переменный 1 7 5 1014
2019-06-01 09:00 С (10°) 6 10 6 1009
2019-05-31 05:00 ЗЮЗ (240°) 4 16 7 1006
2019-05-29 14:30 Переменный 2 22 5 1019
2019-05-27 03:00 ЮЮВ (150°) 2 5 3 1028
2019-05-25 15:00 Ю (170°) 5 19 -3 1017
2019-05-25 07:00 Штиль 0 6 3 1022
2019-05-24 20:30 С (10°) 2 8 4 1019